Overview Statistics Trail Chart Weather Telemetry Raw packets
 

This is the latest recevied weather packets stored in our database for station/object KC2GYU. If no packets are shown the sender has not sent any weather packets the latest 10 day(s).

<< 49 50 51 52 53 54 55 >>
Time Temp. Humidity Pressure Rain* Wind** Luminosity Snow
1777744472 15.56° C 65% 1012 hPa 0 mm - 200 W/m² -
1777744169 15.56° C 62% 1012 hPa 0 mm - 246 W/m² -
1777743866 15.56° C 63% 1012.2 hPa 0 mm - 257 W/m² -
1777743562 15.56° C 63% 1011.9 hPa 0 mm - 243 W/m² -
1777743259 15.56° C 64% 1012.2 hPa 0 mm - 247 W/m² -
1777742958 15.56° C 66% 1012.4 hPa 0 mm - 254 W/m² -
1777742654 15.56° C 65% 1012.1 hPa 0 mm - 254 W/m² -
1777742350 15.56° C 63% 1012 hPa 0 mm - 321 W/m² -
1777742046 15.56° C 66% 1012.4 hPa 0 mm - 350 W/m² -
1777741744 15.56° C 63% 1012.3 hPa 0 mm - 417 W/m² -
1777741440 15.56° C 65% 1012.3 hPa 0 mm - 330 W/m² -
1777741136 15° C 66% 1012.4 hPa 0 mm - 277 W/m² -
1777740833 15° C 64% 1012.4 hPa 0 mm - 256 W/m² -
1777740530 15° C 69% 1012.6 hPa 0 mm - 217 W/m² -
1777740227 14.44° C 65% 1012.7 hPa 0 mm - 196 W/m² -
1777739923 15° C 65% 1012.4 hPa 0 mm - 198 W/m² -
1777739620 15° C 68% 1012.7 hPa 0 mm - 217 W/m² -
1777739318 14.44° C 69% 1012.8 hPa 0 mm - 204 W/m² -
1777739014 14.44° C 70% 1012.9 hPa 0 mm - 179 W/m² -
1777738711 14.44° C 70% 1013 hPa 0 mm - 189 W/m² -
1777738407 14.44° C 69% 1012.9 hPa 0 mm - 183 W/m² -
1777738105 14.44° C 72% 1013.2 hPa 0 mm - 212 W/m² -
1777737804 14.44° C 69% 1013.3 hPa 0 mm - 191 W/m² -
1777737502 14.44° C 71% 1013.3 hPa 0 mm - 192 W/m² -
1777737200 15° C 73% 1013 hPa 0 mm - 201 W/m² -

* Rain latest hour (hover to see other rain measurements)
** Current wind speed in m/s (hover to see current wind gust speed)